Weather History for Camarillo, CA

Change the Weather History Date:

Thursday, November 7, 2013

  Actual Average Record
Temperature  
Mean Temperature 68 °F 60 °F  
Max Temperature 85 °F 72 °F 92 °F (1955)
Min Temperature 50 °F 49 °F 41 °F (1965)
Degree Days  
Heating Degree Days 0 5  
Month to date heating degree days 19 35  
Since 1 July heating degree days 129 158  
Cooling Degree Days 3 1  
Month to date cooling degree days 4 7  
Year to date cooling degree days 627 323  
Growing Degree Days 17 (Base 50)    
Moisture  
Dew Point 30 °F    
Average Humidity 35    
Maximum Humidity 60    
Minimum Humidity 10    
Precipitation  
Precipitation 0.00 in 0.04 in 1.59 in (1966)
Month to date precipitation 0.00 0.34  
Year to date precipitation 2.19 12.19  
Since 1 July precipitation 0.04 1.21  
Sea Level Pressure  
Sea Level Pressure 30.08 in    
Wind  
Wind Speed 4 mph (ENE)    
Max Wind Speed 14 mph    
Max Gust Speed 17 mph    
Visibility 10 miles    
Events      
T = Trace of Precipitation, MM = Missing Value Source: NWS Daily Summary

Daily Weather History Graph

Daily Weather History Graph

Search for Another Location

Airport:

Trip Planner

Search our weather history database for the weather conditions in past years. The results will help you decide how hot, cold, wet, or windy it might be!

Date:

Astronomy

Nov. 07, 2013 Rise Set
Actual Time 6:22 AM PST 4:57 PM PST
Civil Twilight 5:55 AM PST 5:23 PM PST
Nautical Twilight 5:25 AM PST 5:53 PM PST
Astronomical Twilight 4:56 AM PST 6:23 PM PST
Moon 10:32 AM PST (11/7) 9:16 PM PST (11/7)
Length of Visible Light 11h 28m
Length of Day
10h 35m
Waxing Crescent, 24% of the Moon is Illuminated
Nov 7
Waxing Crescent
Nov 9
First Quarter
Nov 17
Full
Nov 25
Last Quarter
Dec 2
New

Hourly Weather History & Observations

Time (PST) Temp. Dew Point Humidity Pressure Visibility Wind Dir Wind Speed Gust Speed Precip Events Conditions
12:55 AM 53.1 °F 26.1 °F 35% 30.12 in 10.0 mi NE 4.6 mph - N/A   Clear
1:55 AM 59.0 °F 19.0 °F 21% 30.12 in 10.0 mi NE 3.5 mph - N/A   Clear
2:55 AM 57.9 °F 23.0 °F 26% 30.11 in 10.0 mi NNW 3.5 mph - N/A   Clear
3:55 AM 57.0 °F 19.9 °F 24% 30.10 in 10.0 mi NE 6.9 mph - N/A   Clear
4:55 AM 61.0 °F 19.0 °F 20% 30.10 in 10.0 mi Calm Calm - N/A   Clear
5:55 AM 57.9 °F 23.0 °F 26% 30.11 in 10.0 mi Calm Calm - N/A   Clear
6:55 AM 64.0 °F 19.0 °F 18% 30.12 in 10.0 mi ENE 8.1 mph - N/A   Clear
7:55 AM 69.1 °F 23.0 °F 18% 30.14 in 10.0 mi NE 3.5 mph - N/A   Clear
8:23 AM 73.4 °F 19.4 °F 13% 30.10 in 10.0 mi ENE 8.1 mph - N/A   Clear
8:55 AM 77.0 °F 21.0 °F 12% 30.13 in 10.0 mi East 10.4 mph - N/A   Clear
9:55 AM 82.0 °F 21.0 °F 10% 30.12 in 10.0 mi East 10.4 mph - N/A   Clear
10:55 AM 82.9 °F 21.9 °F 11% 30.11 in 10.0 mi East 6.9 mph - N/A   Clear
11:55 AM 79.0 °F 42.1 °F 27% 30.09 in 10.0 mi SSW 6.9 mph - N/A   Clear
12:55 PM 78.1 °F 34.0 °F 20% 30.06 in 10.0 mi WSW 8.1 mph - N/A   Clear
1:55 PM 78.1 °F 36.0 °F 22% 30.05 in 10.0 mi WSW 8.1 mph - N/A   Clear
2:55 PM 75.9 °F 30.0 °F 19% 30.05 in 10.0 mi West 10.4 mph - N/A   Clear
3:55 PM 72.0 °F 37.9 °F 29% 30.04 in 10.0 mi Variable 5.8 mph - N/A   Clear
4:55 PM 68.0 °F 39.0 °F 35% 30.03 in 10.0 mi SE 3.5 mph - N/A   Clear
5:55 PM 64.9 °F 43.0 °F 45% 30.04 in 10.0 mi Calm Calm - N/A   Clear
6:55 PM 63.0 °F 48.0 °F 58% 30.03 in 10.0 mi SE 3.5 mph - N/A   Clear
7:55 PM 60.1 °F 37.9 °F 44% 30.03 in 10.0 mi Calm Calm - N/A   Clear
8:55 PM 55.0 °F 37.0 °F 51% 30.04 in 10.0 mi Calm Calm - N/A   Clear
9:55 PM 52.0 °F 37.9 °F 59% 30.04 in 10.0 mi Calm Calm - N/A   Clear
10:55 PM 52.0 °F 36.0 °F 54% 30.03 in 10.0 mi Calm Calm - N/A   Clear
11:55 PM 51.1 °F 34.0 °F 52% 30.01 in 10.0 mi Calm Calm - N/A   Clear